Location: Caltech
(34.1382°N, 118.1253°W)
Time: 11:15:59
(UTC-07:00)

Transit 2A - Visible Passes

Search period start: 25 July 2014 00:00
Search period end: 04 August 2014 00:00
Orbit: 603 x 960 km, 66.7° (Epoch: 24 July)

Date Brightness Start Highest point End Pass type
(mag) Time Alt. Az. Time Alt. Az. Time Alt. Az.
25 Jul 8.4 01:13:28 14° NE 01:13:28 14° NE 01:14:06 10° NE visible
25 Jul 8.1 02:54:00 14° NW 02:54:00 14° NW 02:55:34 10° NNW visible
26 Jul 8.0 02:21:16 17° NNW 02:21:16 17° NNW 02:22:55 10° N visible
27 Jul 8.1 01:48:30 18° N 01:48:30 18° N 01:49:56 10° N visible
28 Jul 8.3 01:15:43 17° N 01:15:43 17° N 01:16:44 10° NNE visible
29 Jul 8.5 00:42:53 13° NNE 00:42:53 13° NNE 00:43:23 10° NNE visible
30 Jul 8.5 01:50:31 10° NNW 01:50:31 10° NNW 01:50:42 10° NNW visible
31 Jul 8.5 01:17:37 13° NNW 01:17:37 13° NNW 01:18:22 10° N visible
01 Aug 8.5 00:44:39 14° N 00:44:39 14° N 00:45:29 10° N visible
02 Aug 8.4 00:11:38 14° N 00:11:38 14° N 00:12:22 10° NNE visible
02 Aug 8.3 23:38:34 13° NNE 23:38:34 13° NNE 23:39:04 10° NNE visible
03 Aug 8.3 23:05:24 11° NNE 23:05:24 11° NNE 23:05:37 10° NNE visible
